This is the latest recevied weather packets stored in our database for station/object IK2ILW-6. If no packets are shown the sender has not sent any weather packets the latest 10 day(s).
| Time | Temp. | Humidity | Pressure | Rain* | Wind** | Luminosity | Snow |
|---|---|---|---|---|---|---|---|
| 1778076402 | 4.44° C | 97% | 1009.7 hPa | 1.02 mm | - | 86 W/m² | - |
| 1778076087 | 4.44° C | 97% | 1009.8 hPa | 2.03 mm | - | 105 W/m² | - |
| 1778075792 | 3.89° C | 97% | 1009.9 hPa | 3.05 mm | - | 366 W/m² | - |
| 1778075496 | 3.89° C | 97% | 1009.9 hPa | 3.05 mm | - | 316 W/m² | - |
| 1778075185 | 3.89° C | 97% | 1009.9 hPa | 3.05 mm | - | 330 W/m² | - |
| 1778074888 | 3.89° C | 97% | 1009.9 hPa | 3.05 mm | - | 151 W/m² | - |
| 1778074592 | 3.89° C | 97% | 1010 hPa | 3.05 mm | - | 237 W/m² | - |
| 1778074296 | 3.89° C | 97% | 1010.1 hPa | 3.05 mm | - | 142 W/m² | - |
| 1778074002 | 3.89° C | 97% | 1009.8 hPa | 3.05 mm | - | 102 W/m² | - |
| 1778073686 | 3.89° C | 97% | 1010 hPa | 3.05 mm | - | 176 W/m² | - |
| 1778073391 | 3.89° C | 97% | 1010 hPa | 3.05 mm | - | 299 W/m² | - |
| 1778073096 | 3.33° C | 97% | 1010.1 hPa | 3.05 mm | - | 190 W/m² | - |
| 1778072800 | 3.33° C | 97% | 1009.9 hPa | 2.03 mm | - | 70 W/m² | - |
| 1778072482 | 3.33° C | 97% | 1009.9 hPa | 1.02 mm | - | 97 W/m² | - |
| 1778072188 | 3.89° C | 97% | 1009.7 hPa | 0 mm | - | 120 W/m² | - |
| 1778071892 | 3.89° C | 97% | 1009.9 hPa | 0 mm | - | 227 W/m² | - |
| 1778071596 | 3.89° C | 97% | 1010.1 hPa | 0 mm | - | 410 W/m² | - |
| 1778071299 | 3.89° C | 97% | 1009.6 hPa | 0 mm | - | 218 W/m² | - |
| 1778071001 | 3.89° C | 97% | 1009.7 hPa | 0 mm | - | 60 W/m² | - |
| 1778070686 | 3.89° C | 97% | 1009.5 hPa | 0 mm | - | 104 W/m² | - |
| 1778070389 | 3.89° C | 97% | 1009.5 hPa | 0 mm | - | 185 W/m² | - |
| 1778070093 | 3.89° C | 97% | 1009.8 hPa | 0 mm | - | 141 W/m² | - |
| 1778069797 | 3.89° C | 97% | 1009.6 hPa | 0 mm | - | 62 W/m² | - |
| 1778069482 | 3.89° C | 97% | 1009.8 hPa | 0 mm | - | 135 W/m² | - |
| 1778069187 | 3.89° C | 97% | 1009.8 hPa | 0 mm | - | 232 W/m² | - |
* Rain latest hour (hover to see other rain measurements)
** Current wind speed in m/s (hover to see current wind gust speed)